This is the latest recevied weather packets stored in our database for station/object KQ7A. If no packets are shown the sender has not sent any weather packets the latest 10 day(s).
| Time | Temp. | Humidity | Pressure | Rain* | Wind** | Luminosity | Snow |
|---|---|---|---|---|---|---|---|
| 1788548452 | 17.78° C | 44% | 1015.2 hPa | 0 mm | - | 234 W/m² | - |
| 1788548148 | 17.78° C | 44% | 1015.3 hPa | 0 mm | - | 270 W/m² | - |
| 1788547842 | 17.78° C | 44% | 1015.2 hPa | 0 mm | - | 218 W/m² | - |
| 1788547537 | 17.78° C | 46% | 1015.2 hPa | 0 mm | - | 261 W/m² | - |
| 1788547232 | 17.22° C | 46% | 1015.5 hPa | 0 mm | - | 327 W/m² | - |
| 1788546927 | 17.22° C | 46% | 1015.1 hPa | 0 mm | - | 246 W/m² | - |
| 1788546622 | 17.22° C | 45% | 1015.2 hPa | 0 mm | - | 393 W/m² | - |
| 1788546318 | 17.78° C | 47% | 1015.1 hPa | 0 mm | - | 205 W/m² | - |
| 1788546018 | 17.78° C | 46% | 1015.3 hPa | 0 mm | - | 196 W/m² | - |
| 1788545713 | 17.22° C | 47% | 1015.1 hPa | 0 mm | - | 387 W/m² | - |
| 1788545408 | 16.67° C | 47% | 1015.2 hPa | 0 mm | - | 228 W/m² | - |
| 1788545107 | 16.67° C | 48% | 1015.3 hPa | 0 mm | - | 172 W/m² | - |
| 1788544803 | 16.67° C | 48% | 1015.2 hPa | 0 mm | - | 177 W/m² | - |
| 1788544502 | 17.22° C | 47% | 1015 hPa | 0 mm | - | 167 W/m² | - |
| 1788544196 | 16.67° C | 48% | 1015.2 hPa | 0 mm | - | 170 W/m² | - |
| 1788543891 | 16.67° C | 47% | 1015.2 hPa | 0 mm | - | 154 W/m² | - |
| 1788543588 | 16.67° C | 47% | 1014.8 hPa | 0 mm | - | 142 W/m² | - |
| 1788543287 | 16.67° C | 47% | 1015 hPa | 0 mm | - | 163 W/m² | - |
| 1788542983 | 16.67° C | 47% | 1014.8 hPa | 0 mm | - | 131 W/m² | - |
| 1788542678 | 16.67° C | 48% | 1015 hPa | 0 mm | - | 144 W/m² | - |
| 1788542372 | 16.67° C | 47% | 1014.7 hPa | 0 mm | - | 149 W/m² | - |
| 1788542068 | 16.67° C | 47% | 1014.5 hPa | 0 mm | - | 136 W/m² | - |
| 1788541764 | 16.67° C | 49% | 1014.7 hPa | 0 mm | - | 121 W/m² | - |
| 1788541459 | 16.67° C | 48% | 1014.8 hPa | 0 mm | - | 136 W/m² | - |
| 1788541154 | 16.67° C | 48% | 1014.5 hPa | 0 mm | - | 128 W/m² | - |
* Rain latest hour (hover to see other rain measurements)
** Current wind speed in m/s (hover to see current wind gust speed)